Location: Caltech
(34.1382°N, 118.1253°W)
Time: 16:04:06
(UTC-08:00)

COSMOS 2428 - Visible Passes

Search period start: 28 November 2014 00:00
Search period end: 08 December 2014 00:00
Orbit: 842 x 860 km, 71.0° (Epoch: 28 November)

Date Brightness Start Highest point End Pass type
(mag) Time Alt. Az. Time Alt. Az. Time Alt. Az.
29 Nov 5.0 18:54:44 10° N 18:54:55 11° N 18:54:55 11° N visible
30 Nov 4.6 18:42:26 10° N 18:43:36 15° N 18:43:36 15° N visible
01 Dec 4.1 18:30:08 10° N 18:32:30 22° NNE 18:32:30 22° NNE visible
01 Dec 5.5 20:14:29 10° NW 20:14:34 10° NW 20:14:34 10° NW visible
02 Dec 3.5 18:17:49 10° N 18:21:46 30° NE 18:21:46 30° NE visible
02 Dec 5.0 20:02:11 10° NW 20:03:52 18° WNW 20:03:52 18° WNW visible
03 Dec 3.3 18:05:31 10° N 18:10:37 32° ENE 18:11:42 30° E visible
03 Dec 4.5 19:49:52 10° NW 19:53:54 28° W 19:53:54 28° W visible
04 Dec 3.3 17:53:13 10° N 17:58:18 32° ENE 18:03:20 10° SE visible
04 Dec 4.4 19:37:33 10° NW 19:42:23 29° WSW 19:47:06 10° SSW visible
05 Dec 3.3 17:40:54 10° N 17:45:59 32° ENE 17:51:01 10° SE visible
05 Dec 4.5 19:25:15 10° NW 19:30:05 29° WSW 19:34:53 10° SSW visible
06 Dec 3.4 17:28:36 10° N 17:33:41 32° ENE 17:38:42 10° SE visible
06 Dec 4.5 19:12:56 10° NW 19:17:46 29° WSW 19:22:34 10° SSW visible
07 Dec 3.4 17:16:17 10° N 17:21:22 32° ENE 17:26:23 10° SE visible
07 Dec 4.6 19:00:37 10° NW 19:05:27 29° WSW 19:10:16 10° SSW visible
